Weather in Igrekovo

Russia / Tomsk District     57°44′43″N   83°47′47″E
temp.,
°C
wind,
m/s
gust,
m/s
humid.,
%
clouds,
%
prec.,
mm/h
press.,
hPa
HPBL,
m
12 august, fri
fri1201:00+11ne36740 0.0 1016112
04:00+10nne35795 0.0 101593
07:00+10nne38772 0.0 1016167
10:00+16ne355321 0.0 1016618
13:00+19ne34415 0.0 10151282
16:00+21ne23385 0.0 10131486
19:00+20ne23494 0.0 1013608
22:00+12ene22695 0.0 101213
13 august, sat
sat1301:00+10e11740 0.0 101110
04:00+9ese22800 0.0 101011
07:00+10se22790 0.0 100931
10:00+17sse23550 0.0 1008424
13:00+21sse34440 0.0 10061239
16:00+23ssw4643100 0.0 10032018
19:00+17sw3787100 0.3 1003346
22:00+14s379820 1.7 1002188
14 august, sun
sun1401:00+13sw389756 1.8 1001166
04:00+12ssw399796 0.0 999228
07:00+13s3899100 2.1 998350
10:00+14wsw51096100 9.3 997419
13:00+13wsw51094100 12.4 998671
16:00+15w61091100 1.7 9991058
19:00+13wnw51292100 3.1 1002908
22:00+11w4119398 0.2 1004347
15 august, mon
mon1501:00+10w512925 0.2 1005526
04:00+8w411935 0.0 1006389
07:00+8w411935 0.0 1008435
10:00+11wnw587294 0.0 1008948
13:00+11w5883100 0.4 1009793
16:00+12wnw597696 0.3 1009984
19:00+10wnw498284 0.6 1010658
22:00+9wnw499094 0.1 1010545
16 august, tue
tue1601:00+8w4996100 0.9 1010464
04:00+8w3896100 0.4 1010495
07:00+7w379691 0.8 1010468
10:00+8w3788100 0.1 1010804
13:00+9w5676100 0.2 10101039
16:00+8wsw4790100 0.3 10101123
19:00+8sw3995100 0.6 1010571
22:00+7sw1497100 0.4 1009159